Burlington, IA

12:53 PM CDT on March 26, 2017 (GMT -0500)
Burlington Regional

Weather History for KBRL - January, 2014

Change the Weather History Date:

Friday, January 3, 2014

  Actual Average Record
Temperature  
Mean Temperature 9 °F 26 °F  
Max Temperature 24 °F 34 °F 62 °F (1998)
Min Temperature -6 °F 18 °F -16 °F (1919)
Degree Days  
Heating Degree Days 56 39  
Month to date heating degree days 165 117  
Since 1 July heating degree days 2682 2303  
Cooling Degree Days 0 0  
Month to date cooling degree days 0 0  
Year to date cooling degree days 0 0  
Moisture  
Dew Point 3 °F    
Average Humidity 74    
Maximum Humidity 91    
Minimum Humidity 57    
Precipitation  
Precipitation 0.00 in 0.04 in 0.71 in (2005)
Month to date precipitation 0.08 0.13  
Year to date precipitation 0.08 0.13  
Sea Level Pressure  
Sea Level Pressure 30.22 in    
Wind  
Wind Speed 13 mph (South)    
Max Wind Speed 28 mph    
Max Gust Speed 33 mph    
Visibility 10 miles    
Events      
T = Trace of Precipitation, MM = Missing Value Source: NWS Daily Summary

Daily Weather History Graph

Daily Weather History Graph

Search for Another Location

Airport or City:

Trip Planner

Search our weather history database for the weather conditions in past years. The results will help you decide how hot, cold, wet, or windy it might be!

Date:

Astronomy

Jan. 03, 2014 Rise Set
Actual Time 7:28 AM CST 4:49 PM CST
Civil Twilight 6:58 AM CST 5:20 PM CST
Nautical Twilight 6:23 AM CST 5:54 PM CST
Astronomical Twilight 5:50 AM CST 6:27 PM CST
Moon 8:54 AM CST (1/3) 8:00 PM CST (1/3)
Length of Visible Light 10h 22m
Length of Day
9h 20m
Waxing Crescent, 8% of the Moon is Illuminated
Jan 3
Waxing Crescent
Jan 7
First Quarter
Jan 15
Full
Jan 23
Last Quarter
Jan 30
New

Hourly Weather History & Observations

Time (CST) Temp. Windchill Dew Point Humidity Pressure Visibility Wind Dir Wind Speed Gust Speed Precip Events Conditions
12:53 AM -5.1 °F - -8.0 °F 87% 30.50 in 9.0 mi Calm Calm - N/A   Clear
1:53 AM -4.0 °F - -9.0 °F 79% 30.50 in 10.0 mi Calm Calm - N/A   Clear
2:53 AM -5.1 °F - -9.0 °F 83% 30.51 in 10.0 mi Calm Calm - N/A   Clear
3:53 AM -4.0 °F -12.4 °F -8.0 °F 83% 30.49 in 10.0 mi WSW 3.5 mph - N/A   Clear
4:53 AM -5.1 °F - -9.0 °F 83% 30.49 in 10.0 mi Calm Calm - N/A   Clear
5:53 AM -5.1 °F -15.8 °F -9.0 °F 83% 30.47 in 10.0 mi SW 4.6 mph - N/A   Clear
6:53 AM -2.9 °F -16.5 °F -7.1 °F 82% 30.45 in 10.0 mi South 6.9 mph - N/A   Clear
7:53 AM 1.0 °F -14.9 °F -4.0 °F 79% 30.43 in 10.0 mi South 10.4 mph - N/A   Clear
8:53 AM 3.9 °F -11.3 °F -0.9 °F 80% 30.42 in 10.0 mi South 10.4 mph - N/A   Clear
9:53 AM 8.1 °F -9.0 °F 1.9 °F 76% 30.39 in 10.0 mi South 15.0 mph 24.2 mph N/A   Clear
10:53 AM 12.0 °F -4.0 °F 3.9 °F 70% 30.34 in 10.0 mi South 15.0 mph - N/A   Overcast
11:53 AM 12.9 °F -1.6 °F 3.9 °F 67% 30.28 in 10.0 mi South 12.7 mph - N/A   Overcast
12:53 PM 17.1 °F 1.5 °F 7.0 °F 65% 30.21 in 10.0 mi South 17.3 mph 26.5 mph N/A   Scattered Clouds
1:53 PM 19.9 °F 5.2 °F 8.1 °F 60% 30.17 in 10.0 mi SSW 17.3 mph 25.3 mph N/A   Clear
2:53 PM 21.0 °F 6.2 °F 9.0 °F 60% 30.12 in 10.0 mi South 18.4 mph 26.5 mph N/A   Clear
3:53 PM 21.0 °F 5.7 °F 9.0 °F 60% 30.07 in 10.0 mi South 19.6 mph 31.1 mph N/A   Clear
4:53 PM 21.0 °F 5.4 °F 10.0 °F 63% 30.03 in 10.0 mi South 20.7 mph 29.9 mph N/A   Clear
5:53 PM 21.0 °F 7.1 °F 10.0 °F 63% 29.99 in 10.0 mi South 16.1 mph 31.1 mph N/A   Clear
6:53 PM 21.0 °F 5.4 °F 10.9 °F 65% 29.94 in 10.0 mi SSE 20.7 mph 32.2 mph N/A   Clear
7:53 PM 23.0 °F 8.0 °F 12.0 °F 63% 29.92 in 10.0 mi South 20.7 mph 27.6 mph N/A   Clear
8:53 PM 23.0 °F 7.2 °F 12.9 °F 65% 29.89 in 10.0 mi South 23.0 mph 31.1 mph N/A   Clear
9:53 PM 24.1 °F 9.8 °F 12.9 °F 62% 29.88 in 10.0 mi South 19.6 mph 27.6 mph N/A   Clear
10:53 PM 24.1 °F 9.8 °F 14.0 °F 65% 29.87 in 10.0 mi South 19.6 mph 27.6 mph N/A   Clear
11:53 PM 24.1 °F 9.8 °F 14.0 °F 65% 29.84 in 10.0 mi South 19.6 mph - N/A   Clear